ABQ702 OPIS-OPSD

Flight info

Callsign ABQ702
Flight time 0h 42m
Altitude 27500
Route BOBAM DCT KAGLO J186 KAPMI J154 BUNGI J186 DELDA DCT BIREB DCT SANAM
Aircraft A320/M-SDE3FGHIRWY/LB1

Departure

Time 2026-04-24 08:26
Airport Islamabad International Airport (OPIS)

Arrival

Time 2026-04-24 09:08
Airport Skardu International Airport (OPSD)
Time Latitude Longitude Altitude Speed Heading
2026-04-24 08:04 33.55811 72.83207 1770 ft 0 kts 100°
2026-04-24 08:07 33.55811 72.83206 1770 ft 0 kts 100°
2026-04-24 08:16 33.55813 72.83196 1770 ft 4 kts 101°
2026-04-24 08:17 33.55819 72.83165 1772 ft 4 kts 108°
2026-04-24 08:17 33.55829 72.83135 1770 ft 4 kts 123°
2026-04-24 08:17 33.55846 72.83116 1769 ft 4 kts 181°
2026-04-24 08:17 33.55855 72.83116 1769 ft 0 kts 192°
2026-04-24 08:18 33.55855 72.83117 1769 ft 3 kts 192°
2026-04-24 08:20 33.55855 72.83116 1769 ft 0 kts 192°
2026-04-24 08:21 33.55850 72.83115 1769 ft 5 kts 192°
2026-04-24 08:21 33.55733 72.83089 1771 ft 22 kts 189°
2026-04-24 08:21 33.55611 72.83002 1773 ft 21 kts 234°
2026-04-24 08:21 33.55528 72.82850 1772 ft 22 kts 235°
2026-04-24 08:22 33.55437 72.82694 1774 ft 23 kts 235°
2026-04-24 08:22 33.55307 72.82612 1769 ft 22 kts 191°
2026-04-24 08:22 33.55191 72.82614 1768 ft 6 kts 122°
2026-04-24 08:22 33.55182 72.82685 1769 ft 14 kts 101°
2026-04-24 08:23 33.55156 72.82848 1768 ft 26 kts 99°
2026-04-24 08:23 33.55118 72.83091 1769 ft 31 kts 100°
2026-04-24 08:23 33.55079 72.83351 1770 ft 32 kts 101°
2026-04-24 08:23 33.55037 72.83616 1771 ft 33 kts 100°
2026-04-24 08:24 33.54995 72.83887 1772 ft 33 kts 101°
2026-04-24 08:24 33.54957 72.84166 1768 ft 34 kts 98°
2026-04-24 08:24 33.54918 72.84405 1771 ft 27 kts 100°
2026-04-24 08:24 33.54860 72.84552 1769 ft 16 kts 168°
2026-04-24 08:25 33.54732 72.84527 1763 ft 23 kts 192°
2026-04-24 08:25 33.54704 72.84470 1764 ft 8 kts 280°
2026-04-24 08:25 33.54737 72.84266 1765 ft 57 kts 280°
2026-04-24 08:25 33.54852 72.83537 1768 ft 118 kts 281°
2026-04-24 08:26 33.55034 72.82365 1762 ft 165 kts 281°
2026-04-24 08:26 33.55252 72.80953 2272 ft 173 kts 281°
2026-04-24 08:26 33.55460 72.79524 3037 ft 173 kts 282°
2026-04-24 08:26 33.55685 72.78094 3672 ft 179 kts 282°
2026-04-24 08:27 33.55933 72.76548 3940 ft 201 kts 282°
2026-04-24 08:27 33.56212 72.74801 4244 ft 224 kts 280°
2026-04-24 08:27 33.56098 72.72864 4599 ft 249 kts 247°
2026-04-24 08:27 33.54959 72.71222 5081 ft 268 kts 218°
2026-04-24 08:28 33.53276 72.70189 5788 ft 276 kts 200°
2026-04-24 08:28 33.51361 72.69824 6542 ft 283 kts 182°
2026-04-24 08:28 33.49401 72.70205 7279 ft 290 kts 163°
2026-04-24 08:28 33.47610 72.71356 8057 ft 297 kts 143°
2026-04-24 08:29 33.46218 72.73200 8830 ft 304 kts 122°
2026-04-24 08:29 33.45432 72.75522 9585 ft 310 kts 102°
2026-04-24 08:29 33.45251 72.77837 10219 ft 314 kts 93°
2026-04-24 08:29 33.45141 72.80535 10470 ft 337 kts 93°
2026-04-24 08:30 33.45027 72.83428 10710 ft 357 kts 93°
2026-04-24 08:30 33.45102 72.86437 11262 ft 365 kts 82°
2026-04-24 08:30 33.45698 72.89405 11938 ft 369 kts 69°
2026-04-24 08:30 33.46782 72.92207 12670 ft 372 kts 62°
2026-04-24 08:31 33.47976 72.94970 13384 ft 375 kts 62°
2026-04-24 08:31 33.49175 72.97764 14029 ft 379 kts 62°
2026-04-24 08:31 33.50381 73.00595 14641 ft 383 kts 62°
2026-04-24 08:31 33.51597 73.03450 15257 ft 386 kts 62°
2026-04-24 08:32 33.52879 73.06296 15846 ft 390 kts 56°
2026-04-24 08:32 33.54615 73.08803 16446 ft 393 kts 41°
2026-04-24 08:32 33.56806 73.10751 17053 ft 394 kts 27°
2026-04-24 08:32 33.59335 73.12014 17652 ft 395 kts 13°
2026-04-24 08:33 33.62045 73.12510 18239 ft 395 kts 359°
2026-04-24 08:33 33.64799 73.12420 18744 ft 398 kts 355°
2026-04-24 08:33 33.67579 73.12290 19240 ft 401 kts 355°
2026-04-24 08:33 33.70385 73.12159 19734 ft 406 kts 355°
2026-04-24 08:34 33.73216 73.12030 20197 ft 410 kts 355°
2026-04-24 08:34 33.76089 73.11901 20668 ft 414 kts 355°
2026-04-24 08:34 33.78985 73.11778 21161 ft 418 kts 355°
2026-04-24 08:34 33.81907 73.11655 21639 ft 422 kts 354°
2026-04-24 08:35 33.84859 73.11528 22102 ft 426 kts 354°
2026-04-24 08:35 33.87797 73.11396 22562 ft 430 kts 354°
2026-04-24 08:35 33.90839 73.11258 23027 ft 433 kts 354°
2026-04-24 08:35 33.93868 73.11123 23454 ft 437 kts 354°
2026-04-24 08:36 33.96920 73.10990 23812 ft 441 kts 354°
2026-04-24 08:36 33.99959 73.10858 24190 ft 444 kts 354°
2026-04-24 08:36 34.03050 73.10724 24575 ft 446 kts 354°
2026-04-24 08:36 34.06160 73.10588 24970 ft 449 kts 353°
2026-04-24 08:37 34.09287 73.10452 25354 ft 451 kts 353°
2026-04-24 08:37 34.12429 73.10312 25742 ft 453 kts 353°
2026-04-24 08:37 34.15586 73.10171 26116 ft 455 kts 353°
2026-04-24 08:37 34.18759 73.10031 26504 ft 457 kts 353°
2026-04-24 08:38 34.21945 73.09890 26870 ft 459 kts 353°
2026-04-24 08:38 34.25145 73.09749 27236 ft 461 kts 353°
2026-04-24 08:38 34.28358 73.09608 27392 ft 461 kts 353°
2026-04-24 08:38 34.31536 73.09472 27416 ft 453 kts 353°
2026-04-24 08:39 34.34674 73.09336 27418 ft 450 kts 353°
2026-04-24 08:39 34.37798 73.09197 27424 ft 449 kts 353°
2026-04-24 08:39 34.40923 73.09056 27423 ft 449 kts 353°
2026-04-24 08:39 34.44048 73.08916 27436 ft 449 kts 353°
2026-04-24 08:40 34.47167 73.08777 27439 ft 449 kts 353°
2026-04-24 08:40 34.50293 73.08674 27445 ft 451 kts 357°
2026-04-24 08:40 34.53422 73.09155 27461 ft 457 kts 10°
2026-04-24 08:40 34.56440 73.10433 27461 ft 463 kts 23°
2026-04-24 08:41 34.59201 73.12465 27466 ft 467 kts 35°
2026-04-24 08:41 34.61562 73.15170 27480 ft 469 kts 49°
2026-04-24 08:41 34.63425 73.18425 27490 ft 470 kts 58°
2026-04-24 08:41 34.65099 73.21769 27493 ft 471 kts 58°
2026-04-24 08:42 34.66795 73.25172 27499 ft 470 kts 59°
2026-04-24 08:42 34.68488 73.28571 27527 ft 471 kts 58°
2026-04-24 08:42 34.70186 73.31973 27530 ft 471 kts 58°
2026-04-24 08:42 34.71886 73.35377 27560 ft 471 kts 58°
2026-04-24 08:43 34.73581 73.38775 27560 ft 470 kts 58°
2026-04-24 08:43 34.75273 73.42171 27578 ft 470 kts 58°
2026-04-24 08:43 34.77007 73.45546 27598 ft 470 kts 54°
2026-04-24 08:43 34.79072 73.48620 27621 ft 469 kts 44°
2026-04-24 08:44 34.81484 73.51265 27616 ft 466 kts 36°
2026-04-24 08:44 34.84058 73.53666 27633 ft 466 kts 35°
2026-04-24 08:44 34.86628 73.56074 27659 ft 466 kts 35°
2026-04-24 08:44 34.89192 73.58486 27672 ft 466 kts 36°
2026-04-24 08:45 34.91758 73.60903 27674 ft 465 kts 35°
2026-04-24 08:45 34.94322 73.63315 27680 ft 466 kts 35°
2026-04-24 08:45 34.96884 73.65730 27682 ft 465 kts 35°
2026-04-24 08:45 34.99407 73.68113 27682 ft 465 kts 36°
2026-04-24 08:46 35.01963 73.70531 27688 ft 465 kts 36°
2026-04-24 08:46 35.04515 73.72947 27682 ft 465 kts 36°
2026-04-24 08:46 35.07073 73.75371 27684 ft 465 kts 35°
2026-04-24 08:46 35.09630 73.77793 27675 ft 465 kts 35°
2026-04-24 08:47 35.12185 73.80213 27670 ft 464 kts 35°
2026-04-24 08:47 35.14733 73.82630 27646 ft 463 kts 35°
2026-04-24 08:47 35.17282 73.85047 27610 ft 463 kts 35°
2026-04-24 08:47 35.19829 73.87457 27597 ft 463 kts 35°
2026-04-24 08:48 35.22379 73.89872 27588 ft 463 kts 35°
2026-04-24 08:48 35.24924 73.92285 27579 ft 463 kts 35°
2026-04-24 08:48 35.27465 73.94704 27557 ft 461 kts 35°
2026-04-24 08:48 35.29996 73.97118 27559 ft 462 kts 35°
2026-04-24 08:49 35.32499 73.99511 27555 ft 462 kts 35°
2026-04-24 08:49 35.35064 74.01965 27551 ft 462 kts 35°
2026-04-24 08:49 35.37595 74.04385 27536 ft 461 kts 35°
2026-04-24 08:49 35.39994 74.06917 27535 ft 463 kts 43°
2026-04-24 08:50 35.42115 74.09969 27526 ft 466 kts 53°
2026-04-24 08:50 35.43781 74.13311 27531 ft 467 kts 62°
2026-04-24 08:50 35.45270 74.16852 27533 ft 467 kts 62°
2026-04-24 08:50 35.46761 74.20393 27531 ft 467 kts 62°
2026-04-24 08:51 35.48249 74.23923 27518 ft 466 kts 61°
2026-04-24 08:51 35.49738 74.27462 27522 ft 467 kts 62°
2026-04-24 08:51 35.51226 74.31002 27519 ft 466 kts 62°
2026-04-24 08:51 35.52713 74.34541 27527 ft 467 kts 62°
2026-04-24 08:52 35.54201 74.38084 27527 ft 467 kts 62°
2026-04-24 08:52 35.55687 74.41626 27525 ft 467 kts 62°
2026-04-24 08:52 35.57170 74.45171 27524 ft 467 kts 62°
2026-04-24 08:52 35.58649 74.48719 27529 ft 466 kts 62°
2026-04-24 08:53 35.60126 74.52265 27397 ft 466 kts 62°
2026-04-24 08:53 35.61592 74.55796 27148 ft 463 kts 62°
2026-04-24 08:53 35.63056 74.59316 26912 ft 461 kts 61°
2026-04-24 08:53 35.64540 74.62800 26649 ft 458 kts 60°
2026-04-24 08:54 35.66066 74.66218 26231 ft 454 kts 60°
2026-04-24 08:54 35.67618 74.69592 25660 ft 453 kts 59°
2026-04-24 08:54 35.69068 74.72964 25135 ft 451 kts 66°
2026-04-24 08:54 35.70030 74.76629 24593 ft 450 kts 79°
2026-04-24 08:55 35.70372 74.80426 24075 ft 444 kts 91°
2026-04-24 08:55 35.70116 74.84172 23560 ft 437 kts 103°
2026-04-24 08:55 35.69356 74.87753 23053 ft 429 kts 109°
2026-04-24 08:55 35.68508 74.91243 22604 ft 424 kts 109°
2026-04-24 08:56 35.67674 74.94703 22138 ft 420 kts 108°
2026-04-24 08:56 35.66851 74.98135 21670 ft 415 kts 109°
2026-04-24 08:56 35.66037 75.01515 21223 ft 410 kts 108°
2026-04-24 08:56 35.65227 75.04872 20752 ft 407 kts 108°
2026-04-24 08:57 35.64424 75.08191 20280 ft 404 kts 108°
2026-04-24 08:57 35.63623 75.11489 19805 ft 401 kts 108°
2026-04-24 08:57 35.62827 75.14771 19312 ft 399 kts 108°
2026-04-24 08:57 35.62031 75.18029 18822 ft 397 kts 108°
2026-04-24 08:58 35.61442 75.20430 18453 ft 396 kts 108°
2026-04-24 08:58 35.60644 75.23662 17920 ft 394 kts 108°
2026-04-24 08:58 35.59865 75.26835 17440 ft 392 kts 108°
2026-04-24 08:58 35.58816 75.29933 16978 ft 385 kts 124°
2026-04-24 08:59 35.57089 75.32310 16625 ft 375 kts 144°
2026-04-24 08:59 35.54894 75.33971 16263 ft 368 kts 153°
2026-04-24 08:59 35.52582 75.35267 15897 ft 363 kts 159°
2026-04-24 08:59 35.50291 75.36562 15496 ft 362 kts 153°
2026-04-24 09:00 35.48187 75.38207 15049 ft 354 kts 141°
2026-04-24 09:00 35.46496 75.40330 14601 ft 342 kts 132°
2026-04-24 09:00 35.44981 75.42510 14160 ft 330 kts 131°
2026-04-24 09:00 35.43423 75.44509 13700 ft 319 kts 143°
2026-04-24 09:01 35.41623 75.46031 13216 ft 310 kts 148°
2026-04-24 09:01 35.39836 75.47439 12735 ft 302 kts 148°
2026-04-24 09:01 35.38063 75.48765 12269 ft 295 kts 150°
2026-04-24 09:01 35.36296 75.50001 11932 ft 290 kts 151°
2026-04-24 09:02 35.34564 75.51223 11470 ft 285 kts 149°
2026-04-24 09:02 35.32908 75.52494 11076 ft 275 kts 148°
2026-04-24 09:02 35.31341 75.53736 10840 ft 262 kts 145°
2026-04-24 09:02 35.30160 75.55344 10632 ft 251 kts 115°
2026-04-24 09:03 35.29819 75.57367 10463 ft 240 kts 85°
2026-04-24 09:03 35.30365 75.59187 10321 ft 222 kts 51°
2026-04-24 09:03 35.31562 75.60243 10147 ft 209 kts 15°
2026-04-24 09:03 35.32937 75.60226 9992 ft 194 kts 337°
2026-04-24 09:04 35.33984 75.59333 9817 ft 177 kts 314°
2026-04-24 09:04 35.34741 75.58222 9628 ft 169 kts 304°
2026-04-24 09:04 35.35401 75.57048 9369 ft 166 kts 305°
2026-04-24 09:04 35.36092 75.55921 9119 ft 165 kts 307°
2026-04-24 09:05 35.36792 75.54821 9051 ft 164 kts 306°
2026-04-24 09:05 35.37480 75.53710 8999 ft 164 kts 310°
2026-04-24 09:05 35.38364 75.52838 8946 ft 164 kts 332°
2026-04-24 09:05 35.39423 75.52309 8911 ft 165 kts 342°
2026-04-24 09:06 35.40422 75.51669 8854 ft 163 kts 311°
2026-04-24 09:06 35.40798 75.50404 8757 ft 161 kts 263°
2026-04-24 09:06 35.40297 75.49229 8644 ft 160 kts 211°
2026-04-24 09:06 35.39240 75.49135 8370 ft 158 kts 150°
2026-04-24 09:07 35.38670 75.49683 8151 ft 160 kts 133°
2026-04-24 09:07 35.37944 75.50697 7982 ft 159 kts 136°
2026-04-24 09:07 35.36081 75.52130 7589 ft 160 kts 149°
2026-04-24 09:08 35.35161 75.52876 7333 ft 157 kts 147°
2026-04-24 09:08 35.34328 75.53530 7306 ft 124 kts 147°
2026-04-24 09:08 35.33750 75.53988 7302 ft 74 kts 147°
2026-04-24 09:08 35.33410 75.54259 7301 ft 46 kts 147°
2026-04-24 09:09 35.33253 75.54341 7304 ft 14 kts 226°
2026-04-24 09:09 35.33221 75.54292 7304 ft 0 kts 237°
2026-04-24 09:10 35.33217 75.54285 7303 ft 0 kts 237°
2026-04-24 09:11 35.33201 75.54254 7304 ft 11 kts 237°
2026-04-24 09:12 35.33156 75.54170 7304 ft 12 kts 233°
2026-04-24 09:12 35.33092 75.54185 7304 ft 10 kts 167°
2026-04-24 09:12 35.33080 75.54182 7305 ft 0 kts 205°
2026-04-24 09:12 35.33087 75.54185 7305 ft 3 kts 239°
2026-04-24 09:13 35.33069 75.54150 7306 ft 10 kts 228°
2026-04-24 09:13 35.33073 75.54088 7305 ft 3 kts 327°
2026-04-24 09:14 35.33066 75.54094 7305 ft 0 kts 147°